Wind_Speed
29 30 30 31 31 31 31 32 32 31 31 31 32 31 30 30 28 28 27 24 22 22 22 22 22 22 20 20 19 19 19 19 20 13 14 28 31 23 18 16 9 6 13 16 13 12 12 13 14 18 14 10 8 7 10 10 6 5 3 3 4 4 4 5 2 1 1 2 3 4 4 5 10 12 10 12 11 13 13 12 14 13 16 19 24 33 35 35
30 29 31 32 32 32 32 34 33 32 32 34 33 31 31 31 29 28 26 23 22 23 23 23 22 22 20 19 18 16 16 18 19 17 28 36 30 26 25 19 15 11 12 18 19 16 12 11 13 15 10 6 7 8 9 8 7 6 3 4 5 4 4 5 2 1 2 5 2 2 5 5 8 12 11 12 13 12 8 10 17 18 18 21 26 32 34 35
30 30 33 34 34 33 34 34 34 34 35 35 34 34 33 32 30 28 26 23 23 25 25 24 23 21 19 17 15 12 12 15 12 17 28 29 27 32 32 24 18 16 16 19 21 20 15 13 16 13 8 7 7 9 10 7 7 7 4 4 5 5 5 5 4 2 2 3 1 4 6 5 6 10 7 12 14 11 8 11 17 19 21 22 23 26 31 33
30 31 33 34 35 36 35 36 36 36 36 36 36 36 35 32 30 29 27 25 24 25 25 25 22 19 17 14 10 7 8 10 6 10 15 14 17 26 31 31 24 20 20 19 19 20 19 16 15 13 9 7 7 9 10 8 7 5 6 7 5 6 5 4 3 3 2 2 4 6 7 5 6 8 6 11 12 10 9 12 17 21 23 23 22 23 27 27
32 34 34 35 36 36 36 38 38 38 38 37 37 37 35 33 31 29 27 25 25 25 26 24 20 16 14 11 4 3 5 3 0 1 8 9 8 15 24 30 27 23 22 19 18 18 19 16 12 11 8 7 8 8 9 11 9 5 9 10 6 7 6 4 5 6 5 4 5 8 9 5 9 10 11 12 8 7 10 15 21 22 22 23 22 22 22 20
33 36 36 37 37 37 38 40 39 39 39 38 37 37 35 33 31 29 27 26 26 25 25 22 18 14 11 6 2 0 2 2 4 4 8 12 6 5 17 27 28 26 22 19 17 16 15 14 11 10 7 7 9 9 9 12 11 6 7 8 8 9 6 5 7 6 5 6 8 9 9 7 9 9 12 14 10 9 12 19 23 21 21 23 22 20 20 18
35 37 38 38 38 38 40 40 40 40 40 39 38 37 35 34 32 29 26 26 26 25 24 19 15 11 6 3 3 2 2 8 15 9 4 10 10 1 12 25 30 27 23 18 15 12 11 12 12 9 8 8 9 11 11 12 13 8 7 7 9 11 8 6 6 6 6 7 10 11 8 6 9 7 9 11 13 14 15 21 22 20 21 21 20 19 19 18
37 38 39 39 39 40 40 40 41 40 40 40 38 36 35 34 32 28 26 26 26 25 22 16 13 9 3 2 2 3 4 16 23 14 13 13 7 3 10 23 29 27 22 19 15 12 11 12 13 10 9 9 8 11 12 11 12 10 8 7 7 8 9 9 8 7 7 7 8 11 8 7 10 9 8 9 13 16 19 22 22 20 20 20 18 19 18 17
38 39 39 39 39 40 40 40 41 40 40 40 38 36 35 34 31 28 26 26 26 24 19 13 11 6 1 2 3 3 9 21 20 12 15 18 10 4 12 20 28 27 21 20 19 14 11 10 13 11 8 9 10 11 12 10 8 9 11 9 9 9 10 13 11 9 8 6 6 10 10 9 9 9 9 12 15 18 21 22 22 20 20 19 19 18 16 17
40 40 40 40 40 40 40 40 40 40 40 39 38 36 35 33 30 28 27 26 26 22 17 11 8 3 3 4 4 3 11 15 14 15 19 16 14 14 14 17 26 27 19 18 18 16 12 11 11 10 8 8 9 11 12 10 7 9 13 13 13 11 10 13 12 10 8 7 8 10 10 8 9 8 7 14 18 18 21 21 21 20 19 19 18 18 16 16
40 41 41 41 41 42 41 41 40 40 40 39 37 36 35 33 30 29 29 27 24 19 14 10 6 3 6 5 4 6 10 8 10 11 22 19 16 19 18 19 25 27 20 14 17 19 18 16 12 7 7 6 7 10 11 11 11 11 12 12 15 14 10 11 12 11 8 7 12 13 10 7 10 9 10 19 19 17 19 20 21 19 17 17 17 17 14 14
40 41 41 41 42 43 43 42 41 40 40 38 36 35 35 33 30 31 30 26 20 14 12 9 4 5 6 4 9 18 15 11 13 9 18 21 19 19 18 21 23 25 23 14 15 22 23 22 17 9 6 5 6 7 7 10 12 13 12 9 12 14 10 9 10 12 11 9 11 11 7 6 7 8 16 23 20 18 19 19 19 17 15 14 14 13 11 13
41 41 41 42 43 43 43 43 42 40 39 37 35 35 34 32 31 32 29 22 15 12 11 8 4 7 6 3 14 27 23 21 22 22 18 16 20 19 16 20 22 23 24 18 16 22 26 25 19 12 8 7 6 5 6 10 10 11 11 8 6 7 8 10 10 12 12 8 9 9 4 6 8 8 18 24 22 20 19 17 17 16 14 13 12 12 10 12
42 43 43 43 43 43 43 44 43 41 39 37 36 35 34 33 31 29 24 16 10 10 10 6 5 8 6 7 16 23 24 26 26 25 23 18 20 21 18 20 20 21 23 21 20 21 24 24 18 10 8 8 6 6 9 9 7 7 8 6 4 3 4 10 13 13 11 6 10 9 4 6 10 11 19 25 25 21 18 17 16 15 14 13 12 13 12 11
42 43 43 44 44 44 44 44 43 40 37 36 35 35 35 32 28 25 20 12 8 8 7 2 8 8 4 10 18 20 19 23 27 28 23 20 19 19 21 23 21 21 22 22 22 20 20 20 13 8 7 8 8 8 8 6 5 4 4 4 4 4 5 7 11 15 13 9 12 11 4 5 11 11 19 24 25 23 18 18 16 16 16 14 13 13 13 11
42 43 43 43 44 44 45 44 42 39 36 36 34 35 34 28 23 23 16 7 6 6 2 2 10 10 4 6 10 13 10 15 24 29 24 21 18 14 20 25 21 20 20 20 20 17 17 14 8 7 6 7 8 7 5 5 5 4 5 4 4 6 5 6 8 14 17 11 13 13 6 4 9 7 19 24 24 23 17 17 16 16 17 14 14 14 12 11
41 42 42 42 42 43 44 43 42 38 35 35 34 35 32 22 20 19 9 2 4 5 5 5 7 8 7 9 10 11 8 13 19 22 22 22 20 17 17 17 15 16 17 17 18 14 12 9 6 6 6 6 6 5 5 7 6 4 5 5 6 7 7 6 9 10 16 14 13 16 9 7 9 6 22 24 24 22 17 17 16 14 15 14 13 14 13 12
42 42 42 41 42 43 42 42 40 34 34 35 33 36 29 18 18 13 2 1 1 4 7 8 6 4 6 8 7 10 9 10 18 19 20 23 23 23 19 11 11 14 12 11 13 12 8 7 6 5 6 7 7 8 8 7 7 6 5 5 6 8 7 9 10 9 15 17 14 16 13 10 10 7 22 24 23 22 17 17 15 13 14 13 14 15 13 13
43 43 43 42 42 43 41 41 38 32 33 34 32 32 20 11 12 5 2 1 0 3 5 4 5 4 8 10 9 13 17 16 15 21 19 22 23 24 21 13 12 14 11 8 10 11 7 5 6 7 8 10 10 10 9 7 8 11 10 7 7 8 8 9 12 11 13 16 13 13 13 11 12 8 20 23 22 21 17 16 13 12 13 13 14 13 13 14
44 44 44 44 43 43 41 40 36 29 31 34 34 27 11 7 8 1 2 6 6 9 12 11 10 11 17 18 18 19 23 25 10 17 21 23 21 17 15 12 11 11 11 9 9 10 8 6 8 11 10 11 13 13 12 10 11 13 12 9 10 10 8 10 14 13 10 12 11 11 12 13 12 9 15 19 21 22 19 16 13 12 13 13 14 14 14 13
46 45 45 45 44 43 41 39 33 26 27 32 29 15 6 10 9 6 10 11 10 11 16 19 16 17 20 20 25 21 14 19 15 9 21 24 18 13 10 11 11 10 11 11 9 8 8 9 12 14 12 12 13 14 13 13 14 14 12 9 7 9 9 12 15 13 10 10 11 13 13 13 12 9 11 16 21 22 22 19 16 16 15 14 15 16 15 12
46 45 46 45 43 43 40 37 29 23 25 27 20 7 7 13 13 15 17 11 12 12 17 21 20 20 21 25 35 26 8 11 18 14 16 22 15 11 10 11 12 9 10 12 8 7 9 13 16 14 11 12 13 13 15 15 15 12 10 9 7 6 7 11 14 13 9 8 9 15 13 11 13 11 11 19 21 19 22 23 19 19 18 15 15 15 15 14
46 45 46 43 43 41 38 34 25 20 24 24 17 10 14 20 21 22 16 10 14 15 17 21 21 19 18 21 30 24 10 11 14 15 14 19 13 11 11 11 12 11 11 13 11 9 10 12 14 13 11 14 14 14 15 14 12 10 8 8 8 9 8 6 10 12 9 6 8 13 11 8 11 11 10 17 19 17 21 24 20 19 19 18 17 16 16 17
46 46 45 42 41 38 35 29 19 22 28 25 18 18 23 26 25 24 13 6 12 14 16 20 17 14 18 18 17 15 10 10 11 13 14 17 12 11 12 11 13 12 11 16 16 14 12 8 11 14 14 15 15 14 14 11 9 11 11 10 8 11 13 10 8 11 10 7 9 11 8 6 9 11 10 11 15 16 18 21 20 19 19 19 18 17 18 18
47 46 44 42 38 36 34 20 15 28 31 21 18 24 29 27 25 25 13 4 7 10 9 11 10 10 19 21 14 9 8 11 13 13 12 17 14 10 10 9 9 12 14 18 17 14 14 9 12 17 16 16 16 14 15 12 8 10 14 14 13 12 14 15 13 9 6 6 9 11 6 5 7 11 11 10 11 15 18 20 20 19 18 18 17 16 17 16
47 45 44 40 34 36 28 9 15 31 24 15 21 28 29 26 28 27 11 3 6 6 2 3 6 5 9 13 10 7 8 10 13 17 16 16 18 11 8 7 6 11 14 14 11 8 10 11 12 16 17 18 17 13 15 14 8 7 12 15 17 15 14 16 16 9 4 4 9 13 7 3 5 9 10 10 10 12 19 21 20 19 17 17 17 16 16 16
47 44 43 37 32 32 20 8 20 25 12 14 26 31 29 27 31 24 7 2 4 3 2 2 1 3 3 7 12 9 6 5 9 17 18 16 17 11 10 10 6 9 10 8 9 7 10 15 14 15 17 16 14 11 13 15 10 6 9 14 18 18 16 16 14 9 4 3 6 12 10 4 4 7 9 11 10 9 19 22 18 18 19 19 19 18 18 18
46 44 40 34 28 22 14 15 20 14 10 20 28 29 30 30 29 16 3 2 3 3 3 2 4 3 6 2 16 11 5 9 9 14 17 18 18 13 11 13 9 10 11 10 9 8 11 17 17 16 15 11 11 12 13 15 12 7 9 13 15 17 17 15 12 8 5 4 5 7 9 6 4 7 8 11 10 8 16 23 21 20 22 21 20 20 20 19
46 43 37 33 25 16 14 17 15 14 18 25 26 29 32 30 20 5 1 4 3 6 6 5 8 9 14 8 13 13 8 6 6 9 16 19 18 13 10 12 12 10 14 14 10 7 9 14 16 15 12 10 11 13 13 15 12 9 11 11 10 14 15 13 10 7 5 5 5 5 6 5 3 6 8 8 9 8 11 19 20 21 21 20 19 20 19 17
46 41 35 31 24 18 20 18 14 16 22 25 27 31 30 19 7 1 2 3 3 9 9 7 13 16 19 16 3 10 12 10 7 6 13 13 15 15 8 9 12 10 10 14 13 10 9 10 14 14 11 9 11 13 15 15 13 10 11 10 8 8 9 9 8 5 5 5 7 7 6 5 4 5 8 9 11 11 9 13 18 20 21 20 19 19 19 17
46 39 32 26 21 19 16 12 16 20 22 26 29 27 19 7 1 1 2 4 6 10 11 11 16 19 21 18 10 7 10 12 11 7 9 9 11 13 9 8 9 8 7 10 12 12 13 11 10 11 12 11 10 12 14 15 15 11 8 7 6 4 4 5 5 6 7 6 6 8 8 7 5 5 7 9 12 15 12 12 21 25 23 20 18 18 19 17
45 37 29 20 17 18 14 14 21 23 22 27 24 14 7 3 0 3 4 8 7 8 11 15 18 19 20 19 13 11 9 9 11 10 6 8 10 10 11 9 6 7 9 8 8 9 12 14 10 9 13 15 11 9 11 12 13 11 7 6 5 3 3 4 4 6 7 5 5 6 8 6 4 5 7 8 8 12 14 12 22 27 24 20 18 18 17 16
45 35 25 16 15 20 19 18 21 21 23 25 16 5 3 2 1 2 5 5 4 8 11 14 19 20 18 16 12 12 13 6 7 11 9 7 9 10 14 13 9 10 8 6 6 8 9 11 14 13 11 15 15 8 7 9 10 11 8 6 6 5 5 5 4 4 4 5 6 6 7 5 4 5 6 8 6 8 12 12 20 26 24 22 20 19 17 16
43 32 23 17 16 19 18 16 18 20 23 20 9 4 4 3 2 7 7 4 6 12 13 15 20 20 14 11 9 11 12 11 9 8 10 8 8 8 12 16 16 11 5 5 6 7 8 9 13 16 8 12 17 11 7 8 8 11 9 6 7 6 5 4 4 3 2 3 6 8 6 4 4 4 5 8 8 8 8 8 17 24 23 21 20 19 18 18
40 30 24 19 17 17 13 10 13 17 17 11 5 4 4 2 3 6 7 6 7 11 14 16 16 15 13 9 10 17 13 11 16 14 8 6 8 9 8 12 16 13 6 6 7 7 10 9 9 14 10 11 17 14 9 9 8 8 8 7 7 6 4 3 3 4 3 1 3 6 5 2 3 4 5 9 9 11 12 7 14 23 23 22 20 19 20 18
41 32 21 17 16 13 11 10 12 15 12 6 4 3 3 4 5 5 6 7 8 11 14 14 11 10 11 9 11 18 16 12 16 13 8 9 7 10 10 10 14 16 11 6 5 6 8 8 8 13 16 15 16 14 13 10 6 6 9 9 6 6 5 3 2 3 3 2 3 4 5 4 4 7 5 8 10 13 16 12 12 22 24 23 20 19 19 17
42 30 17 18 15 8 9 11 10 12 9 4 4 4 3 5 6 7 7 8 9 11 11 8 7 8 10 10 10 16 18 14 14 11 8 12 8 3 4 6 9 12 16 12 7 7 6 6 8 13 18 19 15 15 15 13 8 6 9 9 5 5 6 4 2 3 4 5 4 7 9 7 6 6 6 10 12 13 17 16 11 16 21 21 18 18 19 18
36 23 14 16 11 4 8 11 9 9 5 4 6 4 4 4 6 7 8 9 9 9 8 6 6 7 10 10 10 14 16 11 11 11 9 8 6 12 14 6 7 12 13 14 9 9 8 6 8 14 18 17 14 14 13 14 14 9 7 9 7 5 7 5 3 4 5 5 4 8 12 9 7 7 9 14 16 13 15 17 15 14 20 21 18 18 20 19
25 14 7 6 5 6 12 12 10 7 3 5 4 3 4 5 7 8 9 9 8 7 8 7 6 8 8 10 11 11 11 10 11 10 7 7 8 14 16 12 17 27 26 21 11 10 10 5 5 11 17 16 11 11 10 12 15 11 7 9 8 5 5 5 4 2 4 4 4 6 8 7 6 9 14 18 17 14 12 14 15 15 20 21 18 18 19 18
15 7 6 10 19 20 21 15 8 4 3 5 3 2 5 6 8 10 10 11 6 4 7 8 8 8 7 10 11 8 8 9 11 9 7 9 12 14 14 15 18 26 29 25 14 7 8 7 6 9 12 14 10 10 12 13 13 11 8 8 9 6 4 5 4 3 3 3 3 4 4 5 5 7 14 17 15 15 12 10 12 13 18 21 20 20 19 17
12 5 6 17 31 30 22 11 5 3 3 4 4 4 6 7 8 9 10 12 8 3 6 8 8 8 7 8 8 7 8 8 9 8 7 8 10 8 12 19 20 22 24 21 13 9 5 5 7 9 7 9 11 13 14 15 13 11 8 6 9 9 6 6 6 5 5 3 3 3 4 5 5 4 10 16 14 14 13 10 9 9 16 21 20 20 20 18
9 5 11 27 36 29 15 5 5 4 1 3 6 7 8 9 9 8 7 10 8 6 6 6 8 8 7 8 8 8 8 7 9 9 6 9 9 7 14 22 22 19 17 13 12 13 9 4 7 9 7 8 11 14 16 17 15 12 9 6 8 9 8 6 5 6 6 5 5 3 3 5 6 5 8 15 13 12 12 12 8 7 14 21 19 18 18 18
5 8 21 32 31 22 9 4 5 4 3 6 8 9 10 9 8 7 7 7 6 6 7 7 8 8 8 8 9 10 9 7 8 9 10 12 11 11 18 22 21 20 14 10 11 14 12 5 4 7 7 9 11 12 17 18 15 12 11 9 7 9 9 7 4 6 6 5 6 3 3 5 7 7 3 10 10 11 11 10 9 7 12 19 20 18 17 17
5 8 16 25 26 19 7 4 5 5 6 8 8 10 10 8 8 8 7 7 6 5 6 7 8 8 9 10 9 10 10 6 6 10 11 10 11 15 19 20 20 17 11 10 11 11 10 5 3 4 4 6 7 7 13 15 13 9 10 12 11 10 12 9 4 5 5 7 8 4 3 5 6 7 7 8 9 13 12 11 9 7 12 18 19 18 18 17
7 5 6 15 22 15 5 5 8 7 8 11 11 11 11 8 9 10 8 8 7 6 6 7 8 9 9 10 9 9 9 6 6 8 7 8 11 13 16 19 20 16 14 19 19 11 7 7 4 3 3 4 3 3 6 11 11 7 9 15 15 14 13 10 5 4 4 7 9 6 4 6 5 5 7 9 9 9 8 8 6 5 10 15 16 16 17 17
6 4 4 8 11 8 4 8 10 8 9 11 9 10 11 9 9 9 8 7 6 8 7 7 8 9 8 9 9 9 8 7 5 6 7 9 9 10 15 20 19 18 19 24 22 12 5 6 7 6 6 6 6 5 5 9 13 11 11 14 17 17 13 9 7 5 4 6 6 6 6 5 3 2 4 6 8 6 4 6 6 5 7 11 13 13 14 15
3 4 6 7 6 6 6 8 10 9 10 10 7 8 12 12 10 8 7 6 5 4 5 5 7 8 8 10 10 9 9 8 6 8 8 9 9 12 18 19 16 18 21 20 18 12 6 5 7 8 9 10 12 13 11 8 14 17 16 14 16 20 18 10 8 8 6 7 5 7 9 8 5 4 2 3 6 6 5 8 9 6 7 10 14 15 15 15
3 4 7 8 6 5 7 8 10 11 13 11 7 8 11 11 10 8 7 8 6 4 3 4 7 9 10 11 10 8 8 6 6 7 6 7 9 11 16 18 15 13 15 14 13 10 6 6 9 11 13 13 13 14 13 9 6 12 16 16 14 19 22 17 9 9 9 7 5 7 11 10 6 6 5 6 7 7 8 10 9 8 8 9 13 18 17 13
3 3 5 8 6 6 9 11 12 12 12 10 7 8 10 11 10 9 8 9 8 5 4 5 9 10 11 10 9 8 7 6 5 5 6 8 8 7 10 14 13 11 14 12 11 10 6 6 13 16 14 14 11 10 13 11 6 1 9 17 16 16 22 20 11 9 11 9 7 8 11 10 7 6 6 6 5 7 9 9 8 9 10 11 11 14 13 11
3 3 4 5 5 7 8 9 9 9 9 8 7 7 10 12 12 9 9 10 10 7 6 9 12 12 11 10 9 9 9 7 5 5 7 9 7 5 4 6 9 13 15 11 10 11 8 8 15 16 9 9 8 7 12 13 7 4 3 9 12 11 17 20 15 10 9 9 9 9 10 7 6 7 5 3 6 9 10 10 10 9 10 12 12 11 11 11
4 5 5 5 5 6 6 7 7 7 6 6 6 7 9 12 14 13 11 11 11 8 7 11 13 13 11 9 9 10 10 9 9 8 9 9 6 4 4 5 9 13 14 10 9 11 9 9 13 11 6 6 7 6 11 13 8 7 6 4 3 4 9 17 16 10 7 10 10 8 7 6 6 6 6 8 9 9 10 10 9 8 8 11 11 9 10 11
4 5 4 3 4 5 5 6 6 6 5 4 6 9 10 12 15 14 9 8 10 11 10 11 12 11 10 9 9 10 10 10 12 10 9 10 8 6 6 9 11 11 10 10 9 8 8 9 9 9 6 7 10 11 11 9 7 5 5 2 1 4 5 12 16 12 6 9 9 6 5 6 6 9 10 11 11 11 10 8 8 8 9 10 10 8 7 9
Wind_Direction
3 3 3 2 1 1 359 358 357 355 354 352 349 347 345 344 340 337 336 332 330 328 325 322 319 317 315 315 317 316 318 313 303 291 245 252 256 250 247 239 242 249 212 206 207 201 187 195 209 207 211 216 212 228 232 236 224 182 174 197 242 249 248 282 36 120 218 60 33 86 190 202 155 168 138 127 141 147 167 164 148 135 133 140 139 146 145 143
0 359 0 0 359 357 355 356 354 352 351 350 349 346 343 343 340 338 336 332 329 327 326 322 318 314 313 314 315 320 322 310 295 273 256 259 261 255 253 240 225 232 206 192 204 207 195 192 201 206 205 211 214 219 224 226 227 220 194 190 232 236 230 274 307 177 8 51 46 247 245 241 150 141 134 140 147 152 154 139 137 131 132 135 140 148 148 149
358 357 358 358 357 354 353 353 351 350 349 349 348 345 344 343 340 339 336 332 327 326 325 321 318 313 311 312 316 330 322 307 290 264 271 272 256 247 246 239 221 218 211 197 199 203 208 201 193 202 206 212 217 213 216 214 223 222 207 221 222 218 222 246 270 312 14 58 208 233 259 277 120 121 140 143 141 142 119 121 136 133 135 140 146 151 152 154
357 356 356 355 355 354 352 351 350 350 350 349 347 345 344 343 341 338 335 331 326 326 324 321 318 311 309 312 316 339 318 297 268 253 292 297 250 236 231 230 221 214 216 207 203 206 216 214 197 199 204 214 221 218 219 209 215 205 198 232 216 198 221 212 221 284 260 221 273 265 264 252 136 123 136 141 138 135 131 136 136 136 141 145 149 152 158 160
357 356 355 353 353 352 350 350 349 349 348 348 346 344 344 342 341 338 335 331 327 326 324 321 318 312 309 311 321 357 321 289 236 27 359 349 265 229 216 217 214 213 213 207 212 217 223 225 208 202 204 219 219 220 228 215 217 208 205 223 194 183 212 192 191 235 237 212 245 267 269 215 152 144 143 147 151 150 151 143 138 142 146 149 151 152 162 162
356 356 355 352 351 349 349 348 347 347 346 346 345 344 342 341 340 338 335 331 329 326 324 323 319 315 311 317 69 206 256 265 335 22 15 9 8 215 199 201 204 205 203 201 213 222 225 226 217 207 203 220 220 219 229 220 219 219 219 213 170 180 203 183 190 212 219 209 220 244 252 200 148 143 152 156 160 162 153 140 141 146 147 151 151 153 164 163
356 355 354 352 350 348 348 347 345 345 344 343 343 342 340 339 338 337 335 332 330 327 324 322 319 317 319 28 102 211 224 270 275 256 283 353 18 7 192 195 197 194 193 197 210 221 223 221 219 212 203 216 225 227 232 227 221 215 231 228 188 190 187 176 194 198 207 215 225 247 251 181 141 145 169 161 152 151 141 134 140 144 147 150 151 159 165 161
357 355 353 352 350 348 347 345 344 344 342 342 341 340 338 336 337 336 335 333 329 327 322 318 319 315 320 103 188 240 220 251 258 243 248 276 324 15 171 188 191 186 192 200 208 217 222 224 218 213 209 213 221 229 238 239 225 211 224 244 234 213 175 170 197 196 214 223 227 253 248 168 159 168 167 145 139 140 130 132 142 144 147 152 157 164 163 162
356 355 353 351 349 347 346 344 343 342 341 340 338 337 335 334 336 335 335 333 328 325 317 313 319 313 213 193 244 268 243 250 259 249 242 245 243 183 154 176 185 185 197 207 214 220 221 227 218 217 220 214 219 229 239 245 225 204 212 220 232 232 181 177 199 195 209 229 238 252 231 184 166 163 146 128 129 131 130 137 145 148 153 157 161 165 165 166
356 355 352 350 348 346 345 343 343 341 340 338 336 335 333 334 334 333 333 330 326 320 310 308 314 302 192 231 228 238 255 264 279 248 226 221 203 177 162 176 183 187 201 207 214 223 224 229 221 220 234 230 225 230 236 243 239 217 215 211 217 229 202 185 198 197 200 225 235 242 235 196 160 163 145 127 127 132 137 143 148 152 157 162 164 166 168 168
356 354 352 350 348 346 344 343 343 341 340 337 334 332 331 333 331 331 331 326 323 313 304 304 297 235 207 234 212 229 251 275 313 242 203 199 193 180 174 178 181 186 199 207 214 221 227 235 231 218 228 235 240 245 243 244 257 250 232 221 213 219 219 197 196 197 192 216 226 227 239 215 172 175 155 136 136 143 146 147 152 155 158 165 167 165 168 169
356 354 352 350 348 346 344 343 343 341 339 335 332 330 330 331 329 329 327 323 319 305 299 300 270 206 219 252 229 232 245 266 297 271 197 190 196 201 190 181 184 188 193 202 214 220 229 237 238 231 216 213 239 256 261 249 257 264 257 247 221 211 212 206 204 203 195 200 213 216 235 235 205 179 150 138 142 152 151 149 153 157 159 165 166 162 167 168
356 354 351 349 347 345 344 343 342 341 338 334 330 329 329 328 328 328 323 317 312 295 297 296 229 204 219 248 238 240 259 277 285 287 262 221 201 208 204 190 191 192 194 202 213 218 228 237 241 242 238 228 228 245 265 254 248 255 257 261 241 216 204 203 210 221 216 194 191 207 219 228 230 192 148 137 142 151 151 153 156 159 160 164 162 161 173 171
355 353 350 348 346 344 344 342 342 341 337 332 329 329 328 328 329 327 319 310 304 287 290 295 189 191 219 254 262 260 264 272 280 280 273 255 216 198 198 200 198 196 196 205 219 223 227 237 244 246 248 248 254 264 263 258 249 258 263 252 234 234 225 208 203 213 224 197 186 213 224 214 232 202 153 139 145 152 152 156 159 160 162 166 163 161 174 179
354 352 349 346 344 344 344 342 341 340 335 331 329 328 329 331 331 324 312 301 302 286 287 292 187 196 262 259 271 283 266 258 263 257 253 257 233 194 187 196 200 205 201 204 220 232 232 233 239 239 245 251 261 267 264 271 261 246 258 250 215 214 261 242 206 196 203 196 186 207 233 221 240 207 155 141 145 153 153 154 160 163 162 164 162 163 173 180
353 351 348 345 343 344 342 340 341 339 335 330 328 329 331 333 329 319 312 295 290 280 244 170 194 204 279 269 281 299 259 232 243 242 241 248 242 209 189 189 194 207 209 209 217 230 236 231 227 230 237 241 242 247 257 273 261 227 213 234 224 204 231 257 235 203 196 197 184 196 226 227 249 203 144 138 144 151 149 153 164 163 162 164 159 166 173 174
353 351 348 344 342 343 341 340 340 338 334 329 327 330 332 333 326 321 328 324 290 264 218 235 215 199 251 273 302 305 243 214 226 232 235 236 236 227 205 187 185 199 208 215 216 223 234 227 211 215 223 230 227 221 233 237 237 240 207 215 239 221 209 220 250 228 195 197 186 188 209 230 250 173 135 140 146 149 147 154 166 162 164 169 159 166 174 172
352 351 349 346 343 343 341 340 339 337 333 328 327 330 331 332 329 325 346 129 265 235 228 256 252 211 246 256 281 285 269 233 209 210 224 224 226 231 227 206 178 185 204 215 213 216 223 219 206 202 210 218 220 211 216 217 212 235 220 198 231 238 227 209 229 237 194 195 192 181 196 233 254 167 140 148 148 146 147 154 170 173 167 165 159 167 172 173
352 351 350 348 344 342 341 340 339 335 331 328 329 333 331 326 326 310 186 206 304 264 261 259 222 233 298 291 274 271 292 291 218 196 212 213 214 228 234 221 181 181 201 207 202 204 207 215 209 209 209 207 215 218 220 219 212 231 234 204 205 226 244 227 228 236 192 186 192 177 180 215 242 187 149 153 148 144 152 163 176 174 163 159 159 166 169 174
352 351 350 350 345 342 341 341 338 333 330 327 327 331 332 342 341 267 282 302 280 269 267 266 247 257 286 291 290 291 306 311 270 190 201 205 201 215 231 219 186 186 201 201 196 196 202 221 219 215 211 203 211 222 229 231 227 236 243 226 206 207 232 239 239 243 199 175 187 178 175 199 223 201 160 152 144 145 159 170 172 162 158 160 161 164 167 173
351 350 351 349 345 342 341 341 339 332 331 329 325 327 359 7 353 326 322 299 266 254 254 260 253 255 267 270 280 290 309 315 307 231 203 199 195 200 217 210 192 195 201 198 195 190 202 224 225 217 211 208 209 215 225 234 236 239 249 253 226 208 220 229 237 245 211 180 185 180 181 197 210 205 167 145 141 151 162 168 169 164 163 164 163 164 167 171
351 350 349 348 346 343 341 342 341 334 338 336 330 343 14 359 340 323 320 299 275 259 250 255 250 250 255 256 265 271 279 283 291 281 208 189 195 197 197 204 197 197 193 195 200 187 204 227 224 212 208 216 215 211 215 226 236 238 244 259 258 241 232 223 233 245 215 180 181 181 184 196 201 206 175 152 152 161 165 169 172 168 165 166 166 164 166 170
349 348 349 348 346 343 340 343 342 342 344 334 330 356 358 345 337 329 320 296 289 271 246 242 238 239 238 245 256 253 243 245 263 275 219 184 194 199 198 204 196 198 192 195 206 193 206 224 216 208 208 214 220 218 212 217 231 237 236 243 253 257 257 232 228 240 227 184 172 178 185 196 195 203 189 166 166 168 166 168 171 169 168 170 170 166 168 171
349 348 348 346 344 343 340 341 343 347 341 329 334 356 349 338 337 336 325 281 287 277 250 234 227 233 227 226 240 226 216 230 241 262 223 186 190 198 204 207 193 202 199 197 208 213 223 214 190 208 215 210 216 221 217 212 216 229 235 235 240 245 252 256 234 230 232 207 179 172 182 208 195 196 199 180 173 173 170 166 165 170 171 170 170 170 173 173
348 347 347 345 344 342 338 340 351 346 338 334 351 350 340 336 334 333 327 281 278 277 256 224 211 238 232 224 229 210 203 226 229 249 231 191 189 194 203 211 198 205 203 198 206 219 231 213 181 202 214 212 213 216 218 216 207 219 229 234 241 243 246 258 259 239 230 220 193 173 176 231 204 194 200 197 187 178 172 169 168 171 169 168 171 173 176 177
346 346 347 345 342 341 342 349 344 337 330 334 347 339 332 332 329 326 321 278 280 279 287 156 176 207 220 213 213 206 217 229 222 237 244 207 194 197 206 209 202 207 203 200 209 220 223 219 205 201 206 213 215 215 215 215 218 216 213 223 239 251 251 256 267 257 217 224 204 179 173 235 210 197 196 200 205 180 169 173 173 170 168 170 176 175 175 178
345 344 346 345 342 344 344 323 326 332 328 327 333 331 328 328 324 321 310 244 277 277 85 87 190 169 182 180 172 190 223 182 195 228 237 216 198 196 211 210 201 206 199 196 215 212 199 212 222 211 204 208 214 217 209 208 223 222 196 206 224 243 253 256 267 267 240 257 230 193 175 173 207 209 194 191 207 180 166 173 174 172 175 177 178 177 175 177
344 343 346 344 341 345 333 310 317 321 313 319 325 327 324 322 318 314 309 294 300 358 49 12 351 357 330 222 171 201 248 139 164 221 224 219 203 190 209 216 211 204 200 208 213 195 190 206 220 220 211 206 208 213 206 206 222 228 209 206 210 224 242 254 263 267 272 290 269 214 178 171 214 220 198 187 201 187 167 175 179 176 179 180 179 177 176 177
343 343 346 341 337 347 339 317 303 295 309 319 324 324 319 314 310 297 224 288 308 3 358 351 355 347 336 328 185 212 254 181 180 200 203 218 211 200 215 215 220 218 210 224 227 198 198 202 211 224 224 211 204 204 205 210 216 222 228 227 215 213 222 238 249 263 289 282 259 239 198 194 222 212 195 185 200 200 173 176 181 179 178 179 178 176 176 175
343 342 344 340 332 338 338 325 308 306 320 327 324 319 314 307 299 219 242 277 343 359 352 358 354 343 340 342 255 220 233 241 270 193 187 212 207 205 210 200 225 237 218 229 236 231 229 205 201 220 232 219 201 195 201 211 212 211 225 236 239 224 210 219 233 252 279 268 250 250 245 244 249 216 195 186 193 195 182 172 174 178 179 179 177 174 174 174
342 341 343 338 328 328 326 315 319 317 318 325 323 316 309 295 232 217 268 321 341 351 353 352 349 342 338 338 324 272 234 237 269 246 192 198 201 202 198 191 217 238 233 228 226 232 240 230 206 207 221 225 214 199 196 203 208 210 214 219 241 258 223 208 206 218 238 252 256 259 269 269 257 236 212 194 186 188 193 176 166 175 181 180 177 173 174 175
341 342 342 335 324 319 298 288 312 315 314 323 323 313 304 305 217 229 303 337 335 350 355 343 339 336 329 326 317 303 278 227 239 260 232 193 201 199 200 203 189 202 234 232 211 217 229 237 236 213 208 216 223 207 193 197 200 206 207 192 207 235 220 212 195 205 226 240 252 263 275 268 248 248 219 202 196 192 200 185 165 172 178 176 175 174 175 175
340 341 337 329 318 307 293 289 302 309 318 324 317 294 293 306 346 329 344 1 330 331 346 339 330 326 323 320 313 318 316 283 226 247 249 212 209 203 201 210 200 197 221 230 211 212 216 228 237 232 208 202 218 214 185 193 189 196 204 182 186 201 196 205 205 206 224 228 227 240 261 254 248 265 210 198 234 215 201 189 168 169 172 172 173 173 175 176
338 341 335 327 317 305 294 283 287 304 318 319 305 294 293 263 21 9 3 5 324 326 341 344 330 323 321 308 313 355 348 328 330 291 257 224 214 213 199 205 215 217 216 222 226 221 217 219 221 229 214 179 207 223 192 181 183 195 203 185 190 199 185 190 197 190 191 212 213 214 231 221 205 234 184 190 243 245 222 196 166 166 169 169 171 171 174 178
338 341 336 325 313 309 309 295 299 315 320 311 296 307 298 278 9 12 359 341 331 334 337 338 331 322 322 318 342 13 9 330 342 338 293 246 222 220 199 196 212 223 218 214 228 223 227 232 208 217 228 187 195 217 208 183 186 194 196 202 203 189 168 174 185 170 141 149 217 208 225 222 208 237 183 182 219 237 250 236 161 165 170 167 172 176 177 179
339 342 337 320 307 304 323 341 334 323 313 298 298 322 322 320 338 349 346 344 337 332 330 333 337 323 323 340 353 357 355 341 347 348 326 316 276 223 209 194 197 212 226 228 234 230 229 235 198 196 222 219 195 201 209 199 185 174 193 210 189 162 186 205 188 159 142 206 226 211 235 243 245 265 234 194 200 212 236 242 173 167 172 169 172 178 177 176
338 337 323 306 301 287 317 340 330 310 303 286 291 307 298 307 334 337 342 352 336 327 329 328 336 335 330 337 342 344 344 343 349 351 335 327 320 295 270 219 180 203 229 240 245 246 249 244 212 193 209 221 206 196 208 212 200 174 190 195 144 151 210 216 194 177 179 212 213 206 222 216 207 235 234 220 216 206 216 227 201 171 171 171 171 173 174 173
329 321 292 283 281 264 330 330 301 295 297 270 281 291 281 302 335 337 347 350 331 328 332 319 331 343 335 329 329 339 341 338 345 345 332 328 342 3 1 345 352 346 303 285 271 245 260 262 226 208 203 209 206 196 205 215 216 205 174 163 157 192 205 188 201 196 184 210 217 211 217 212 200 198 199 213 222 217 209 214 212 181 168 174 175 171 172 172
328 319 283 294 358 6 343 323 287 285 278 268 291 319 315 330 345 351 349 332 327 339 329 318 330 332 329 327 323 336 347 339 338 337 331 340 325 334 2 14 346 345 341 328 303 246 255 263 238 223 200 190 194 197 198 205 214 215 177 161 181 205 179 172 202 199 174 200 218 219 218 218 217 196 190 203 213 213 203 200 205 185 166 171 173 170 173 173
332 327 277 345 7 352 335 321 284 260 250 272 305 341 326 341 355 351 327 309 326 9 324 322 331 322 319 321 318 336 349 334 334 330 311 324 322 321 358 18 348 336 335 327 315 278 256 237 252 252 205 184 188 200 199 190 197 210 197 176 184 188 163 175 204 206 194 204 204 218 236 240 239 202 187 194 200 201 193 182 191 183 166 166 168 169 175 175
321 325 269 329 345 338 331 326 286 264 238 265 310 342 338 339 334 327 321 327 346 345 310 318 318 313 313 315 325 342 336 325 328 322 303 320 332 333 352 358 347 336 333 329 331 336 305 236 251 264 233 201 196 194 193 188 190 203 207 188 179 181 175 178 203 207 200 230 222 209 252 252 256 235 187 186 191 192 185 175 179 175 164 167 170 170 173 174
311 320 294 318 334 339 337 319 291 307 318 318 338 349 345 333 318 316 337 346 341 318 316 314 309 316 317 318 333 335 324 323 316 312 327 334 327 325 337 342 343 339 333 327 327 332 328 279 250 252 251 246 219 192 180 183 189 198 212 209 181 182 182 177 195 194 187 225 241 245 276 261 280 285 187 177 179 175 170 170 177 173 165 169 172 168 167 173
323 312 303 313 333 351 345 296 308 331 340 330 339 347 338 322 311 324 348 343 331 336 330 313 318 328 325 327 332 325 324 328 318 325 341 332 321 324 329 334 341 339 333 330 334 335 332 315 262 261 259 265 248 199 173 176 186 197 212 215 201 192 186 175 178 173 172 207 216 236 272 257 296 320 124 143 151 148 151 167 180 175 164 168 171 166 164 172
318 306 304 319 343 356 338 311 335 329 324 332 345 345 329 314 316 331 341 328 323 336 322 316 333 333 326 328 323 322 337 345 329 339 342 323 315 323 325 332 340 335 326 332 338 331 319 312 316 304 255 248 253 200 172 176 186 197 203 207 219 208 181 175 186 170 179 202 187 182 251 249 284 331 39 79 120 141 152 172 179 166 161 168 170 167 167 171
315 305 295 328 345 349 334 350 347 329 338 349 351 339 324 319 326 327 322 319 331 350 336 324 330 323 315 317 313 320 346 3 337 333 337 317 311 317 323 329 330 319 313 326 331 321 290 281 292 298 241 227 235 205 184 181 184 200 199 197 215 220 191 176 177 167 190 207 189 176 219 249 285 354 42 61 91 122 145 156 155 146 151 163 170 172 172 168
327 325 320 339 343 338 343 357 354 354 351 345 339 329 323 320 319 317 315 333 12 10 341 323 324 318 307 311 317 321 341 5 340 312 320 321 315 314 318 320 317 311 318 329 334 328 283 264 263 249 243 251 259 274 251 186 174 189 201 194 202 216 212 180 163 185 186 182 199 195 176 200 267 4 67 85 105 122 127 105 93 89 117 145 167 175 176 172
337 323 334 347 331 328 351 357 357 353 329 322 327 324 320 317 316 322 325 337 17 8 329 320 319 316 314 323 328 325 339 352 322 305 319 321 315 313 314 315 311 313 326 334 336 332 302 284 285 268 262 263 266 279 279 217 180 183 195 202 197 202 215 207 175 186 165 143 208 215 156 156 217 230 190 156 152 155 134 104 99 98 103 132 161 171 180 183
354 320 335 346 332 330 341 332 332 326 313 318 326 309 312 320 325 331 327 323 334 353 2 327 308 313 321 327 328 322 332 334 305 314 329 317 323 327 321 320 319 333 346 337 332 336 307 300 330 321 301 288 279 285 291 275 210 179 190 210 206 193 206 216 192 172 159 148 207 203 157 160 201 210 197 198 183 157 133 121 114 108 95 109 150 167 173 174
340 307 328 348 335 308 307 304 308 315 318 323 317 308 323 331 327 325 320 315 316 333 353 316 306 319 323 324 327 319 324 330 315 331 328 312 325 336 327 321 322 351 3 336 325 336 313 313 340 333 312 297 294 299 301 293 285 219 193 209 217 201 198 209 214 184 162 166 194 176 157 168 180 174 187 198 168 133 127 121 104 103 102 97 121 148 150 140
339 320 324 332 312 296 299 302 308 317 321 320 320 337 344 333 323 320 312 310 313 328 339 317 311 318 318 324 330 317 322 332 316 311 312 310 322 325 316 313 308 328 342 333 324 327 321 329 334 330 321 304 306 310 302 295 286 296 245 204 219 216 194 199 217 212 162 169 193 160 145 173 177 162 169 135 105 106 110 108 98 104 111 103 107 122 124 118
276 296 312 311 304 304 305 308 314 314 312 322 335 344 340 325 320 320 313 310 314 322 324 311 309 312 312 317 319 312 320 319 297 287 286 287 296 293 281 284 296 312 323 322 322 322 322 328 328 333 339 317 328 319 290 298 310 289 267 222 217 245 201 191 205 220 180 171 182 147 137 197 191 140 107 86 90 89 87 92 88 82 85 89 100 118 129 131
274 296 315 302 292 302 301 302 308 303 301 320 324 319 320 316 315 319 321 317 317 319 314 305 310 317 313 315 320 319 319 305 291 285 273 270 273 259 253 266 274 284 297 307 314 314 315 322 328 338 332 310 328 320 284 297 328 288 255 221 86 332 270 198 193 211 200 162 167 165 183 204 156 117 103 94 90 81 78 81 81 75 67 67 73 82 104 125
Height
809 807 805 802 800 798 795 793 791 788 787 784 782 780 778 776 774 772 770 768 767 765 764 762 761 760 759 758 757 755 753 751 748 750 745 727 725 733 735 736 737 739 742 745 748 749 750 752 752 752 754 755 755 754 750 746 742 754 771 782 787 782 775 762 758 760 759 761 757 756 755 757 762 754 745 746 750 753 754 754 755 757 757 761 767 771 775 780
808 806 804 801 799 797 794 792 790 787 785 783 781 779 776 774 772 770 768 766 765 763 762 761 759 758 757 757 755 754 753 750 748 744 730 720 725 729 730 733 736 738 740 742 744 744 748 750 749 750 753 756 754 751 752 747 744 755 767 778 780 771 761 749 748 749 749 757 756 752 749 749 750 745 744 754 761 757 759 760 758 764 765 765 767 771 776 778
807 805 803 800 798 795 793 791 788 786 783 781 779 777 775 772 770 768 766 764 763 761 760 758 757 756 755 755 754 754 753 750 748 733 717 715 721 722 725 730 732 736 737 739 740 741 744 744 745 748 753 757 753 750 753 748 747 751 758 775 770 756 751 743 742 743 744 749 754 753 746 745 743 739 744 755 762 760 764 764 762 769 769 769 769 769 774 777
807 805 802 799 797 794 792 789 787 784 782 780 777 775 773 770 769 767 765 763 761 759 758 756 755 754 753 753 753 754 753 752 741 720 712 712 712 715 720 725 729 733 735 736 739 740 740 740 742 745 752 758 751 748 752 747 746 747 752 765 755 745 750 743 738 740 739 742 747 749 748 749 742 739 745 752 763 767 764 760 760 766 766 767 768 769 772 775
806 804 801 798 796 793 790 788 785 782 780 778 775 773 770 769 767 764 763 761 759 758 756 754 753 752 752 752 753 753 755 752 730 712 712 711 709 712 715 721 726 730 732 736 738 738 739 738 739 744 751 756 753 751 750 740 737 745 746 747 742 742 750 742 734 737 736 738 743 746 750 747 738 740 745 749 764 766 756 753 755 758 760 763 765 768 771 773
806 803 800 798 794 792 789 786 783 780 778 775 773 771 769 767 764 763 761 759 758 756 754 752 751 751 750 750 752 752 755 744 718 711 713 710 710 710 713 719 723 727 731 735 736 736 738 737 740 747 750 752 753 752 747 734 731 746 745 736 737 739 742 738 732 734 734 739 744 743 740 733 737 746 741 744 755 750 743 745 750 754 756 759 762 767 770 773
805 802 800 797 794 791 787 785 782 779 776 773 771 769 767 765 763 762 759 758 756 754 752 751 750 750 749 750 752 752 755 737 711 711 713 710 712 710 714 718 721 727 730 732 734 735 736 738 742 743 748 752 751 747 741 732 728 742 745 735 733 732 734 733 729 731 733 738 738 732 730 729 743 750 740 741 743 738 738 741 747 752 755 759 764 767 769 771
805 802 799 796 793 789 786 783 780 777 774 771 769 766 765 763 761 759 757 757 754 752 751 749 749 749 749 751 750 752 751 727 706 710 712 711 714 712 715 718 722 726 727 730 730 732 734 737 739 738 747 749 744 742 736 734 733 737 741 734 729 728 728 729 728 730 731 732 729 728 733 733 737 740 739 740 737 734 737 742 747 752 756 761 765 767 769 771
804 801 798 795 792 789 785 782 778 776 772 769 767 764 762 760 759 757 756 755 752 752 749 748 749 747 749 749 749 751 735 709 702 709 710 711 713 713 715 717 722 724 725 728 726 729 733 735 734 732 741 741 737 738 732 739 741 731 731 730 727 727 724 726 728 728 729 727 726 733 736 731 726 730 740 738 734 735 737 744 750 753 759 762 764 766 767 770
804 800 798 794 791 788 784 781 777 774 770 767 764 762 760 758 757 755 754 752 751 750 748 749 748 746 751 747 750 749 718 699 705 707 708 711 712 713 714 715 719 722 723 725 725 727 727 729 726 722 731 734 733 734 730 735 733 720 722 723 723 724 720 722 725 723 726 726 726 736 737 728 722 732 747 740 732 736 740 748 750 754 761 761 763 765 766 768
803 800 797 793 790 787 783 780 776 772 769 765 762 760 758 756 754 753 751 750 748 747 747 747 746 747 749 747 752 740 706 699 705 703 707 709 709 711 712 714 716 719 721 722 723 722 722 722 717 721 731 731 731 732 727 723 720 715 718 722 721 721 718 719 724 722 725 728 724 728 732 727 724 733 742 735 732 737 742 750 751 755 760 760 762 763 764 767
803 799 796 793 789 785 781 778 774 771 767 763 761 757 755 754 752 751 749 748 746 746 745 745 746 746 747 749 743 721 700 701 703 704 709 708 708 709 709 712 713 715 718 719 720 719 720 717 715 725 729 727 733 737 727 714 714 715 716 727 726 720 723 721 721 721 724 728 717 721 740 740 732 733 730 725 729 735 742 750 752 756 758 759 761 762 765 765
802 799 795 792 788 784 781 776 772 769 765 762 758 755 753 751 749 748 746 745 745 744 744 744 745 745 749 745 723 707 703 701 701 705 708 708 708 707 709 711 711 713 715 716 718 716 718 715 715 722 720 723 733 729 719 710 714 719 717 727 731 732 733 720 716 719 721 722 708 722 759 757 736 726 721 720 725 734 745 750 752 756 757 758 760 762 765 765
801 798 794 790 787 784 779 775 771 767 763 760 756 753 751 748 747 745 743 743 742 743 742 742 744 745 748 734 709 705 705 701 702 703 703 706 706 706 708 709 710 712 713 714 715 714 715 713 713 717 716 720 723 717 718 719 719 723 725 728 734 746 741 718 713 719 724 719 704 724 761 757 734 721 716 716 721 732 744 749 750 753 755 757 759 762 765 763
801 797 793 789 786 782 778 774 770 766 762 758 754 751 748 745 744 741 741 740 740 741 740 742 743 743 744 728 705 700 700 701 701 697 699 702 701 703 704 706 709 709 711 713 713 712 712 711 715 722 721 716 718 726 733 732 726 726 740 744 739 746 742 720 711 714 723 718 706 727 755 750 730 717 711 712 718 727 739 746 747 750 752 755 757 759 763 762
800 797 792 788 784 781 777 773 770 765 761 756 752 749 746 744 741 739 739 738 740 740 740 742 740 742 743 723 702 697 697 698 696 693 697 698 698 699 700 703 706 707 710 709 710 711 709 711 715 720 723 723 727 737 743 745 741 732 741 752 743 743 745 732 715 706 711 716 713 726 745 744 727 712 708 711 717 725 735 742 744 747 749 751 755 757 760 761
800 797 792 788 783 780 776 772 769 765 761 756 752 748 745 742 739 738 737 738 739 738 739 739 737 742 734 709 700 700 694 692 693 693 695 695 697 697 697 701 703 705 707 708 709 709 709 713 717 720 723 729 731 737 752 761 757 743 739 745 741 738 742 739 725 706 703 715 719 723 733 735 721 709 711 713 715 724 735 741 742 743 746 748 751 755 757 759
801 797 792 788 783 779 775 772 768 764 760 755 751 748 744 742 739 737 737 738 738 738 740 737 739 744 725 704 705 700 689 690 690 692 694 694 695 696 695 697 700 704 709 713 711 711 715 715 719 728 731 732 732 737 754 758 752 748 742 743 743 736 735 736 728 708 701 713 719 724 731 728 716 710 714 713 712 722 732 737 740 740 743 746 748 752 754 756
801 797 792 787 782 779 775 771 767 764 760 755 751 747 743 741 738 737 737 738 739 742 742 737 738 737 717 702 701 694 688 689 689 689 690 692 693 694 694 694 696 705 716 722 719 714 717 721 725 734 735 733 732 732 740 740 737 739 735 735 740 738 732 725 715 699 696 712 718 721 730 726 718 714 712 712 712 721 730 734 737 739 740 743 746 748 750 753
800 796 792 787 782 778 774 771 767 763 760 756 751 747 744 742 741 740 737 737 739 738 736 732 730 725 712 701 694 692 691 686 686 687 686 688 690 693 694 693 698 707 715 722 722 713 715 731 734 729 729 727 726 725 727 727 727 728 729 729 729 733 731 717 706 693 687 710 719 714 721 722 717 713 707 707 712 721 729 733 736 737 738 740 743 745 747 749
799 795 791 786 782 777 773 770 766 763 760 757 753 750 748 749 751 747 737 732 730 730 728 722 720 717 711 703 692 694 699 691 686 684 683 684 686 696 698 695 705 714 713 715 717 712 717 733 728 718 719 718 719 721 722 725 725 725 728 728 726 727 725 709 701 692 682 704 718 708 716 720 713 710 705 704 712 719 722 726 731 732 734 736 738 741 743 744
798 794 789 786 781 776 772 769 766 763 760 758 755 753 752 754 756 752 743 732 722 721 720 713 711 709 703 701 691 694 707 705 694 684 680 682 685 696 699 696 708 713 709 711 717 722 727 726 715 709 712 712 715 716 719 724 724 726 726 730 732 723 718 707 695 688 683 699 714 709 715 719 708 704 704 703 707 710 709 712 719 723 729 733 735 738 740 742
798 792 789 785 780 777 771 768 766 763 761 760 757 756 755 755 753 750 748 740 722 710 707 701 701 700 699 698 690 692 706 706 701 688 675 680 686 691 695 698 706 708 709 713 718 727 729 716 705 706 707 711 716 714 717 723 723 726 726 731 734 721 721 721 703 690 685 691 703 706 713 715 706 702 703 701 700 701 702 704 709 714 721 726 728 731 735 738
797 792 789 784 780 777 771 769 766 763 762 759 758 757 755 755 752 749 747 743 729 702 686 686 689 691 690 688 684 689 700 697 696 687 672 677 685 687 691 695 701 707 707 707 711 717 715 703 698 704 706 709 717 716 716 723 727 725 722 725 727 717 717 718 704 691 688 689 690 701 721 720 709 710 707 699 698 701 702 705 710 712 714 718 722 726 728 730
796 793 788 783 780 776 772 769 766 765 762 758 759 757 756 754 750 750 747 745 735 699 675 679 685 683 679 681 683 684 691 690 686 680 669 670 679 685 690 688 695 707 704 702 708 711 706 695 693 703 707 706 713 716 713 718 726 725 718 714 714 712 710 707 701 698 707 712 693 698 737 738 711 710 709 699 699 704 704 707 712 713 713 718 722 724 726 726
796 793 788 784 781 776 772 769 767 767 763 760 760 757 756 754 750 750 749 753 742 700 678 682 683 679 676 679 681 682 693 689 674 671 667 667 669 677 690 688 687 698 698 697 703 703 698 691 690 699 705 705 710 713 707 708 723 727 713 704 705 706 707 705 703 707 720 722 694 687 728 743 720 710 705 698 700 703 705 708 711 712 714 717 719 720 722 725
795 792 789 785 781 778 775 771 771 770 765 763 760 757 756 752 750 748 751 761 739 691 680 687 682 678 676 674 675 687 699 684 670 669 663 666 666 668 687 691 688 691 686 693 706 698 690 693 693 694 699 705 709 709 702 700 718 721 701 696 704 704 707 706 704 710 710 706 695 685 703 730 732 714 697 694 700 704 708 712 711 711 711 711 712 713 716 719
794 791 788 785 781 780 778 775 773 770 768 765 759 759 755 751 751 748 759 768 726 680 684 689 680 679 677 672 673 682 681 670 677 674 656 661 665 667 685 688 687 690 680 691 708 692 682 693 694 691 697 702 702 699 693 695 709 708 691 690 697 699 704 702 704 710 703 706 717 700 695 726 736 711 692 692 699 707 711 712 710 708 707 707 708 709 711 713
793 789 787 784 781 780 779 777 774 770 768 764 761 759 753 751 751 750 769 768 715 685 694 689 683 687 685 679 677 678 672 666 674 666 653 661 661 664 681 681 681 688 680 683 695 688 678 681 682 686 693 693 690 687 684 691 700 694 685 687 689 692 697 700 706 710 708 720 731 711 700 725 735 712 699 701 703 705 706 707 706 703 703 704 705 706 707 710
791 788 786 784 780 779 778 775 773 770 767 764 762 757 752 753 753 762 780 760 716 705 705 697 699 701 697 695 688 681 678 673 665 658 660 665 661 662 670 671 675 683 683 680 684 682 671 666 669 675 680 677 676 677 677 682 686 684 686 692 695 695 695 700 703 707 722 734 727 710 700 716 732 717 700 698 694 690 692 699 704 702 702 702 701 702 704 706
790 787 784 783 781 780 779 776 772 769 767 764 761 755 754 753 756 774 775 737 716 724 717 709 713 708 704 708 702 689 681 677 668 665 671 670 670 672 673 678 683 688 693 688 684 681 675 672 669 665 664 665 669 674 673 672 676 682 691 698 708 709 704 711 712 714 738 744 721 704 697 709 730 719 693 683 676 673 678 687 697 699 699 699 697 698 699 701
789 785 783 781 781 780 778 774 770 768 767 764 761 757 759 762 765 771 758 732 735 744 732 727 725 716 711 709 704 693 683 679 672 669 675 676 678 677 679 684 688 699 708 697 691 689 682 676 668 662 657 657 670 679 678 675 676 685 694 703 723 731 727 734 735 730 740 737 712 700 702 712 719 702 682 676 670 667 667 670 682 689 691 694 694 695 695 696
788 784 781 780 779 778 775 772 769 769 766 763 762 759 763 776 774 761 752 752 757 748 738 737 729 720 717 711 704 694 685 682 675 671 672 675 680 677 676 677 677 693 703 696 696 696 690 680 668 666 661 652 663 679 687 686 682 689 696 706 725 737 744 752 746 737 738 729 708 698 705 716 712 690 673 669 665 661 659 659 668 676 681 687 688 690 692 693
786 783 781 778 777 775 772 771 770 769 766 763 763 763 769 778 771 757 757 760 753 742 739 740 731 722 717 711 706 702 703 696 682 680 677 674 682 681 677 676 672 679 688 694 695 692 700 696 672 666 663 653 657 666 672 677 681 683 681 691 709 718 731 744 741 738 738 727 712 707 711 716 711 688 665 660 657 653 653 654 660 667 672 678 682 685 690 691
784 782 779 776 774 772 770 770 770 769 768 764 764 770 775 773 765 762 762 757 751 748 744 739 734 730 720 713 710 711 719 715 699 695 688 679 681 679 675 677 674 676 685 697 692 680 693 690 661 653 653 648 655 655 651 664 682 679 670 685 700 695 703 718 720 718 720 724 720 714 709 699 688 673 655 655 657 652 652 653 660 668 668 673 680 682 685 687
782 779 778 775 773 772 770 770 770 768 767 766 771 775 774 768 763 762 758 754 755 753 749 745 741 739 734 727 725 721 721 720 714 711 702 688 679 671 669 668 668 673 679 687 686 678 687 680 652 649 650 643 648 648 643 658 677 677 677 687 682 673 686 708 714 705 710 732 728 710 706 695 686 678 661 657 661 657 655 655 660 668 666 669 677 678 680 683
782 779 778 774 770 770 770 769 769 768 766 769 775 774 768 763 759 756 752 752 755 752 754 758 750 745 747 743 739 734 728 726 725 725 720 707 688 676 674 667 663 672 673 675 679 671 677 678 653 646 655 643 635 642 643 642 653 671 682 677 668 672 682 696 716 719 724 741 727 705 708 706 704 699 673 662 667 663 658 654 657 664 667 671 674 674 676 677
785 781 777 771 768 768 768 768 767 766 767 771 772 766 761 759 754 752 751 752 754 752 758 763 755 750 754 753 747 740 738 738 737 736 732 722 705 693 693 689 682 684 680 677 678 664 665 680 660 639 647 643 630 644 657 644 638 653 663 658 668 694 700 697 712 724 732 740 725 706 703 699 700 695 675 668 668 662 658 654 653 660 666 670 672 672 673 673
788 783 775 768 768 769 767 767 765 765 770 773 771 764 758 755 753 751 752 753 753 756 760 761 757 755 756 755 751 745 746 748 746 745 741 732 720 704 702 709 704 698 692 688 685 665 659 680 674 639 630 638 638 649 665 660 644 643 650 654 663 682 692 694 698 704 716 728 722 711 706 694 681 671 663 662 658 654 655 653 651 654 659 663 667 669 670 670
792 789 778 768 769 769 765 764 763 766 773 771 766 762 757 756 755 752 752 752 751 756 761 760 759 761 758 755 753 750 752 753 750 751 745 735 730 715 705 714 717 707 698 689 681 666 656 671 679 651 629 638 648 646 650 655 654 654 661 667 669 671 675 684 689 688 697 714 716 713 711 689 657 644 647 649 646 644 644 645 647 648 650 655 658 662 665 665
796 793 781 768 768 767 764 765 764 763 767 764 760 759 757 757 756 754 751 751 750 752 756 758 760 761 758 755 754 752 754 756 752 751 747 738 740 733 716 717 725 718 707 696 684 677 670 668 672 663 648 646 642 630 628 637 644 651 660 663 666 670 676 692 702 689 684 698 701 704 709 683 643 630 634 634 635 635 633 637 643 643 646 650 651 655 659 660
800 796 782 772 772 769 767 769 765 759 761 762 760 759 758 757 756 754 753 754 756 754 753 756 758 758 757 755 755 753 754 757 755 750 748 745 745 743 729 725 730 726 721 715 700 688 683 673 667 663 654 644 630 617 618 626 631 640 649 650 653 660 669 691 706 693 684 690 685 688 701 679 638 624 623 622 625 627 627 632 637 640 643 645 647 650 654 657
806 798 782 776 776 772 772 774 768 764 764 761 759 760 761 760 757 755 756 758 760 759 759 758 757 758 759 755 756 756 754 758 757 750 752 751 744 740 736 732 733 728 724 720 707 695 686 675 670 665 651 639 626 614 613 618 628 642 646 642 646 653 657 668 678 677 684 691 685 693 704 679 639 620 617 617 620 623 625 628 632 637 639 641 644 647 652 656
808 799 784 778 778 776 778 780 775 772 768 762 763 767 764 760 758 758 761 762 760 761 764 763 760 761 761 757 757 756 756 762 762 756 758 758 747 740 738 735 735 733 729 723 717 714 706 691 685 684 674 661 650 639 634 630 633 643 644 640 642 644 648 656 660 666 681 686 682 695 703 678 642 625 619 620 623 625 627 627 628 632 636 639 641 642 647 652
808 802 791 783 781 781 782 782 780 778 775 772 774 775 770 765 762 760 762 761 759 761 766 766 763 762 761 759 759 756 755 765 769 764 763 761 751 741 738 737 736 733 728 721 716 719 716 701 694 697 695 686 676 666 654 642 638 640 640 640 642 641 646 656 664 675 686 681 674 686 691 671 646 633 628 627 628 631 630 627 627 628 632 637 639 641 644 648
812 809 800 793 788 785 784 783 783 785 784 783 782 779 775 774 768 761 760 761 762 763 766 766 763 763 762 760 760 759 757 762 768 767 764 763 756 747 740 737 734 730 725 719 714 715 711 697 688 691 693 687 678 665 644 632 638 645 643 641 642 641 642 650 665 678 679 676 678 676 671 667 656 644 638 634 632 633 633 633 633 631 632 635 639 643 644 644
816 814 809 806 800 792 789 788 789 791 789 786 785 782 780 778 773 766 762 763 764 764 765 766 764 765 765 762 762 762 761 763 766 766 765 764 759 751 742 735 732 728 723 718 716 716 714 701 684 679 678 670 662 653 637 629 633 638 639 640 640 640 641 649 663 666 661 674 685 668 658 667 663 647 642 639 633 633 635 637 637 635 633 634 636 641 644 644
820 818 813 813 811 803 801 799 797 795 790 786 786 784 781 780 778 775 770 764 763 764 767 770 767 765 765 764 765 765 764 766 766 766 766 765 761 756 746 734 728 726 725 724 719 719 720 707 688 680 675 660 649 643 637 634 631 629 633 637 636 637 641 648 654 651 650 667 676 662 657 664 658 646 642 637 632 634 636 635 633 632 632 633 635 640 644 647
821 820 815 814 815 812 808 804 799 796 791 789 789 785 781 781 780 779 775 769 766 764 768 772 769 764 764 764 766 767 766 768 770 769 767 764 762 762 758 745 730 725 730 731 722 720 723 709 691 687 680 661 648 644 639 637 635 632 633 632 632 634 636 642 646 643 644 653 654 654 659 658 648 640 636 630 628 631 633 631 631 633 633 635 638 642 645 648
823 823 820 819 818 813 807 803 799 797 795 792 791 788 787 787 783 779 776 774 772 769 768 771 768 764 763 763 766 768 765 766 769 768 765 764 764 764 764 758 743 733 735 736 728 724 725 714 695 689 685 667 649 644 644 641 638 639 636 631 631 633 633 638 642 640 643 648 646 649 659 655 641 630 628 628 629 631 633 634 635 636 636 637 641 645 647 648
823 823 822 823 820 813 808 804 800 801 799 794 793 792 792 792 787 782 777 772 772 771 769 770 768 764 762 763 766 766 761 760 762 760 758 760 760 759 759 757 753 747 742 739 735 728 726 719 701 694 698 681 655 650 650 642 639 643 641 634 635 639 637 636 635 636 641 646 648 653 659 653 639 630 631 634 635 636 639 639 639 640 638 639 643 646 647 648
822 822 821 823 821 814 810 806 802 802 800 795 794 793 792 790 786 784 782 774 769 769 768 766 766 765 765 765 764 762 758 757 755 752 751 751 749 750 753 751 750 751 747 742 739 733 729 724 711 707 710 693 669 661 653 648 659 661 645 633 634 637 637 632 630 631 632 635 647 656 653 642 633 631 637 642 643 644 643 642 643 643 641 641 643 645 647 647